Вернуться в каталог

IRIDIUM 172

АктивенСвязьPO
NORAD 43927·PAYLOAD·🇺🇸 United States

Запущен Jan 11, 2019 с Vandenberg Space Force Base

Loading…

Ближайшие Пролёты (ближайшие 24 часа)

TLE

СвежийSource: CelesTrak SupGP

Эпоха: Sep 14, 2026, 20:39 UTC

1 43927C 19002F   26257.86076389 -.00001272  00000+0 -45483-3 0  2573
2 43927  86.3975 316.1075 0002310  96.8695  47.0218 14.34218482    17

Отслеживайте IRIDIUM 172 в реальном времени с AllMySat

Download on the App Store